Weather Roundup
Issued by NWS Springfield, MO

Home | Current Version | Previous Version | Text Only | Print | Product List | Glossary On
Versions: 1 2 3 4 5 6 7 8 9 10 11 12 13 14 15 16 17 18 19 20 21 22 23 24 25 26 27 28 29 30 31 32 33 34 35 36 37 38 39 40 41 42 43 44 45 46 47 48 49 50
703
NZUS99 KSGF 191257
HRRSGF

HOURLY WEATHER
NATIONAL WEATHER SERVICE SPRINGFIELD MO
700 AM CST SUN FEB 19 2017

......SGF CWA......

CITY           SKY/WX    TMP DP  RH WIND       PRES   REMARKS
SPRINGFIELD    CLEAR     47  45  93 E8        29.98S
JOPLIN         CLEAR     45  45 100 VRB5      29.97R FOG
WEST PLAINS    FOG       40  39  97 CALM      30.05R VSB 1/4
OSAGE BEACH    FOG       41  39  93 CALM      30.02S VSB 1
BRANSON        PTCLDY    45  45 100 CALM      30.01R

......SURROUNDING SGF CWA......

CITY           SKY/WX    TMP DP  RH WIND       PRES   REMARKS
CHANUTE        FOG       43  42  97 E6        29.94F VSB 1/4
PARSONS        CLEAR     42  41  96 CALM      29.95S FOG
COFFEYVILLE    MOCLDY    39  39 100 E3        29.95S FOG
EMPORIA        FOG       43  43 100 SE9       29.91F VSB 1/4
HARRISON AR    CLEAR     46  46 100 SE6       30.00R

......KANSAS AND MISSOURI......

CITY           SKY/WX    TMP DP  RH WIND       PRES   REMARKS
KANSAS CTY INT PTCLDY    45  45 100 S10       29.95R FOG
SEDALIA        FOG       44  43  96 S6        30.00R VSB 1/4
ST JOSEPH      FOG       36  36 100 CALM      29.94S VSB 3/4
ST LOUIS       CLEAR     43  41  93 CALM      30.03R
WICHITA        CLOUDY    48  47  96 E7        29.88S FOG
TOPEKA         FOG       39  37  92 CALM      29.93S VSB 1/4
OLATHE         FOG       42  42 100 SE3       29.95S VSB 1/4

......TENNESSEE......

CITY           SKY/WX    TMP DP  RH WIND       PRES   REMARKS
MEMPHIS        NOT AVBL
NASHVILLE      MOCLDY    46  44  93 S5        30.07R FOG

......ARKANSAS.......

CITY           SKY/WX    TMP DP  RH WIND       PRES   REMARKS
FAYETTEVILLE   CLOUDY    42  42 100 CALM      29.98S
FT SMITH       CLEAR     49  48  97 E6        29.97S FOG
LITTLE ROCK    FOG       48  48 100 CALM      30.03F VSB 1/4

......OKLAHOMA.......

CITY           SKY/WX    TMP DP  RH WIND       PRES   REMARKS
TULSA          CLOUDY    50  50 100 E7        29.91S
PONCA CITY     CLOUDY    52  50  93 SE12      29.90R FOG
MCALESTER      CLOUDY    61  58  90 SE7       29.92S
OKLAHOMA CITY  CLOUDY    56  55  97 S13       29.87R FOG

......IOWA............

CITY           SKY/WX    TMP DP  RH WIND       PRES   REMARKS
DES MOINES     NOT AVBL
QUAD CITIES    CLOUDY    28  25  88 CALM      29.99R

......ILLINOIS........

CITY           SKY/WX    TMP DP  RH WIND       PRES   REMARKS
QUINCY         CLEAR     41  40  96 S6        29.99R FOG
CHICAGO        PTCLDY    40  34  79 W3        30.00R




USA.gov is the U.S. government's official web portal to all federal, state and local government web resources and services.